ARG0719 SAAC-SABE

Flight info

Callsign ARG0719
Flight time 0h 39m
Altitude FL240
Route PADAS N785 GUA W11 PAGON
Aircraft F28/M-VD/C

Departure

Time 2026-05-05 19:40
Airport Comodoro Pierrestegui Airport (SAAC)

Arrival

Time 2026-05-05 20:20
Airport Aeroparque Jorge Newbery (SABE)
Time Latitude Longitude Altitude Speed Heading
2026-05-05 19:20 -31.30274 -58.00116 84 ft 0 kts 190°
2026-05-05 19:37 -31.30281 -58.00116 88 ft 4 kts 173°
2026-05-05 19:38 -31.30297 -58.00098 83 ft 3 kts 111°
2026-05-05 19:38 -31.30312 -58.00056 87 ft 5 kts 92°
2026-05-05 19:38 -31.30299 -58.00030 84 ft 0 kts 30°
2026-05-05 19:39 -31.30266 -58.00009 85 ft 27 kts 29°
2026-05-05 19:39 -31.29864 -57.99759 79 ft 103 kts 27°
2026-05-05 19:40 -31.29071 -57.99286 306 ft 140 kts 28°
2026-05-05 19:40 -31.28149 -57.98639 710 ft 166 kts 44°
2026-05-05 19:40 -31.27594 -57.97394 1395 ft 187 kts 74°
2026-05-05 19:40 -31.27597 -57.95766 1966 ft 222 kts 94°
2026-05-05 19:41 -31.28258 -57.93989 2406 ft 258 kts 127°
2026-05-05 19:41 -31.29702 -57.92676 2918 ft 271 kts 157°
2026-05-05 19:41 -31.31537 -57.92257 3428 ft 271 kts 187°
2026-05-05 19:41 -31.33345 -57.92729 3935 ft 266 kts 203°
2026-05-05 19:42 -31.35085 -57.93420 4455 ft 265 kts 206°
2026-05-05 19:42 -31.36805 -57.94197 4956 ft 264 kts 207°
2026-05-05 19:42 -31.38501 -57.95010 5433 ft 263 kts 208°
2026-05-05 19:42 -31.40166 -57.95883 5900 ft 265 kts 210°
2026-05-05 19:43 -31.41835 -57.96811 6409 ft 268 kts 211°
2026-05-05 19:43 -31.43527 -57.97776 6884 ft 273 kts 211°
2026-05-05 19:43 -31.45242 -57.98770 7335 ft 278 kts 211°
2026-05-05 19:43 -31.46990 -57.99791 7795 ft 285 kts 211°
2026-05-05 19:44 -31.48780 -58.00850 8263 ft 293 kts 211°
2026-05-05 19:44 -31.50619 -58.01949 8747 ft 302 kts 211°
2026-05-05 19:44 -31.52512 -58.03092 9231 ft 311 kts 212°
2026-05-05 19:44 -31.54456 -58.04283 9728 ft 320 kts 211°
2026-05-05 19:45 -31.56443 -58.05509 10179 ft 328 kts 212°
2026-05-05 19:45 -31.58486 -58.06781 10630 ft 336 kts 212°
2026-05-05 19:45 -31.60565 -58.08086 11094 ft 343 kts 212°
2026-05-05 19:45 -31.62687 -58.09426 11553 ft 350 kts 212°
2026-05-05 19:46 -31.64856 -58.10780 12007 ft 357 kts 210°
2026-05-05 19:46 -31.67126 -58.12024 12480 ft 364 kts 207°
2026-05-05 19:46 -31.69470 -58.13183 12958 ft 370 kts 205°
2026-05-05 19:46 -31.71875 -58.14324 13446 ft 375 kts 205°
2026-05-05 19:47 -31.74309 -58.15456 13912 ft 379 kts 205°
2026-05-05 19:47 -31.76770 -58.16587 14340 ft 383 kts 204°
2026-05-05 19:47 -31.79279 -58.17682 14781 ft 387 kts 201°
2026-05-05 19:47 -31.81861 -58.18614 15227 ft 390 kts 201°
2026-05-05 19:48 -31.84452 -58.19552 15679 ft 392 kts 200°
2026-05-05 19:48 -31.87069 -58.20481 16169 ft 393 kts 200°
2026-05-05 19:48 -31.89677 -58.21407 16648 ft 393 kts 200°
2026-05-05 19:48 -31.92290 -58.22335 17143 ft 393 kts 200°
2026-05-05 19:49 -31.94902 -58.23264 17646 ft 392 kts 200°
2026-05-05 19:49 -31.96636 -58.23880 17982 ft 392 kts 201°
2026-05-05 19:49 -32.00099 -58.25113 18608 ft 390 kts 201°
2026-05-05 19:49 -32.02688 -58.26034 19061 ft 388 kts 201°
2026-05-05 19:50 -32.05263 -58.26950 19521 ft 386 kts 201°
2026-05-05 19:50 -32.07820 -58.27860 19987 ft 384 kts 201°
2026-05-05 19:50 -32.10369 -58.28773 20464 ft 382 kts 202°
2026-05-05 19:50 -32.12892 -58.29673 20945 ft 379 kts 202°
2026-05-05 19:51 -32.15394 -58.30567 21431 ft 376 kts 202°
2026-05-05 19:51 -32.17887 -58.31456 21926 ft 372 kts 202°
2026-05-05 19:51 -32.20347 -58.32335 22432 ft 369 kts 203°
2026-05-05 19:51 -32.22786 -58.33208 22950 ft 365 kts 203°
2026-05-05 19:52 -32.25198 -58.34071 23466 ft 361 kts 203°
2026-05-05 19:52 -32.27587 -58.34926 23781 ft 362 kts 204°
2026-05-05 19:52 -32.30009 -58.35798 23892 ft 368 kts 204°
2026-05-05 19:52 -32.32480 -58.36683 23943 ft 376 kts 203°
2026-05-05 19:53 -32.35007 -58.37587 23958 ft 382 kts 203°
2026-05-05 19:53 -32.37541 -58.38494 23953 ft 383 kts 203°
2026-05-05 19:53 -32.40087 -58.39408 23958 ft 383 kts 203°
2026-05-05 19:53 -32.42640 -58.40325 23954 ft 384 kts 203°
2026-05-05 19:54 -32.45196 -58.41243 23952 ft 385 kts 203°
2026-05-05 19:54 -32.47760 -58.42165 23949 ft 386 kts 204°
2026-05-05 19:54 -32.50329 -58.43090 23947 ft 388 kts 204°
2026-05-05 19:54 -32.52913 -58.44020 23952 ft 391 kts 203°
2026-05-05 19:55 -32.55520 -58.44960 23963 ft 393 kts 204°
2026-05-05 19:55 -32.58134 -58.45902 23953 ft 395 kts 203°
2026-05-05 19:55 -32.60765 -58.46850 23957 ft 397 kts 204°
2026-05-05 19:55 -32.63408 -58.47803 23956 ft 399 kts 203°
2026-05-05 19:56 -32.66064 -58.48762 23954 ft 400 kts 203°
2026-05-05 19:56 -32.68723 -58.49722 23954 ft 402 kts 203°
2026-05-05 19:56 -32.71399 -58.50690 23955 ft 403 kts 203°
2026-05-05 19:56 -32.74084 -58.51661 23948 ft 405 kts 203°
2026-05-05 19:57 -32.76779 -58.52636 23952 ft 406 kts 203°
2026-05-05 19:57 -32.79475 -58.53612 23949 ft 407 kts 203°
2026-05-05 19:57 -32.82184 -58.54594 23951 ft 408 kts 203°
2026-05-05 19:57 -32.84901 -58.55579 23948 ft 409 kts 203°
2026-05-05 19:58 -32.87622 -58.56556 23943 ft 410 kts 203°
2026-05-05 19:58 -32.90357 -58.57529 23938 ft 411 kts 203°
2026-05-05 19:58 -32.93102 -58.58504 23936 ft 412 kts 203°
2026-05-05 19:58 -32.95841 -58.59478 23938 ft 413 kts 203°
2026-05-05 19:59 -32.98590 -58.60459 23939 ft 413 kts 203°
2026-05-05 19:59 -33.01344 -58.61439 23935 ft 415 kts 201°
2026-05-05 19:59 -33.04234 -58.61873 23939 ft 428 kts 185°
2026-05-05 19:59 -33.07214 -58.61633 23942 ft 430 kts 183°
2026-05-05 20:00 -33.10156 -58.61865 23943 ft 421 kts 195°
2026-05-05 20:00 -33.13025 -58.62456 23946 ft 419 kts 197°
2026-05-05 20:00 -33.15895 -58.63094 23951 ft 421 kts 195°
2026-05-05 20:00 -33.18767 -58.63649 23840 ft 414 kts 193°
2026-05-05 20:01 -33.21582 -58.63992 23417 ft 402 kts 193°
2026-05-05 20:01 -33.24330 -58.64355 22892 ft 394 kts 192°
2026-05-05 20:01 -33.27016 -58.64690 22365 ft 386 kts 192°
2026-05-05 20:01 -33.29663 -58.65022 21858 ft 380 kts 192°
2026-05-05 20:02 -33.32265 -58.65350 21364 ft 374 kts 192°
2026-05-05 20:02 -33.34831 -58.65673 20877 ft 369 kts 192°
2026-05-05 20:02 -33.37366 -58.65991 20395 ft 364 kts 192°
2026-05-05 20:02 -33.39860 -58.66306 19912 ft 360 kts 192°
2026-05-05 20:03 -33.42329 -58.66618 19441 ft 356 kts 191°
2026-05-05 20:03 -33.44773 -58.66926 18974 ft 352 kts 191°
2026-05-05 20:03 -33.47189 -58.67232 18514 ft 348 kts 191°
2026-05-05 20:03 -33.49588 -58.67535 18048 ft 345 kts 191°
2026-05-05 20:04 -33.51961 -58.67835 17530 ft 342 kts 191°
2026-05-05 20:04 -33.54318 -58.68133 17023 ft 339 kts 191°
2026-05-05 20:04 -33.56652 -58.68430 16461 ft 339 kts 191°
2026-05-05 20:04 -33.58987 -58.68726 15902 ft 338 kts 190°
2026-05-05 20:05 -33.61316 -58.69021 15350 ft 337 kts 190°
2026-05-05 20:05 -33.63635 -58.69315 14809 ft 335 kts 190°
2026-05-05 20:05 -33.65949 -58.69572 14272 ft 336 kts 184°
2026-05-05 20:05 -33.68276 -58.69286 13750 ft 338 kts 174°
2026-05-05 20:06 -33.70584 -58.68796 13173 ft 337 kts 173°
2026-05-05 20:06 -33.72875 -58.68255 12596 ft 336 kts 172°
2026-05-05 20:06 -33.75151 -58.67696 12029 ft 334 kts 172°
2026-05-05 20:06 -33.77425 -58.67125 11472 ft 334 kts 172°
2026-05-05 20:07 -33.79689 -58.66548 10921 ft 333 kts 172°
2026-05-05 20:07 -33.81945 -58.65968 10385 ft 332 kts 172°
2026-05-05 20:07 -33.84200 -58.65388 9854 ft 332 kts 172°
2026-05-05 20:07 -33.86447 -58.64835 9273 ft 331 kts 173°
2026-05-05 20:08 -33.88701 -58.64314 8699 ft 329 kts 173°
2026-05-05 20:08 -33.90940 -58.63813 8137 ft 328 kts 173°
2026-05-05 20:08 -33.93171 -58.63320 7587 ft 326 kts 174°
2026-05-05 20:08 -33.95401 -58.62863 7046 ft 324 kts 175°
2026-05-05 20:09 -33.97615 -58.62449 6509 ft 322 kts 175°
2026-05-05 20:09 -33.99820 -58.62052 5949 ft 320 kts 175°
2026-05-05 20:09 -34.02021 -58.61676 5391 ft 318 kts 175°
2026-05-05 20:09 -34.04178 -58.61333 5083 ft 307 kts 175°
2026-05-05 20:10 -34.06232 -58.61016 4996 ft 290 kts 175°
2026-05-05 20:10 -34.08211 -58.60717 4540 ft 288 kts 175°
2026-05-05 20:10 -34.10210 -58.60439 3972 ft 290 kts 175°
2026-05-05 20:10 -34.12220 -58.60180 3423 ft 292 kts 175°
2026-05-05 20:11 -34.14221 -58.59949 3116 ft 284 kts 175°
2026-05-05 20:11 -34.16133 -58.59745 3005 ft 269 kts 175°
2026-05-05 20:11 -34.17974 -58.59551 2950 ft 264 kts 175°
2026-05-05 20:11 -34.19706 -58.59371 2948 ft 261 kts 176°
2026-05-05 20:12 -34.21503 -58.59184 2956 ft 258 kts 176°
2026-05-05 20:12 -34.23282 -58.59028 2958 ft 256 kts 177°
2026-05-05 20:12 -34.25048 -58.58899 2942 ft 254 kts 178°
2026-05-05 20:12 -34.26802 -58.58776 2964 ft 252 kts 178°
2026-05-05 20:13 -34.28548 -58.58654 2945 ft 252 kts 178°
2026-05-05 20:13 -34.30288 -58.58537 2944 ft 251 kts 178°
2026-05-05 20:13 -34.32037 -58.58420 2967 ft 252 kts 178°
2026-05-05 20:13 -34.33776 -58.58304 2959 ft 250 kts 178°
2026-05-05 20:14 -34.35502 -58.58193 2954 ft 247 kts 178°
2026-05-05 20:14 -34.37210 -58.58098 2977 ft 245 kts 178°
2026-05-05 20:14 -34.38887 -58.57961 3082 ft 239 kts 175°
2026-05-05 20:14 -34.40551 -58.57808 3022 ft 239 kts 177°
2026-05-05 20:15 -34.42122 -58.57625 3150 ft 210 kts 171°
2026-05-05 20:15 -34.43390 -58.56972 3186 ft 189 kts 148°
2026-05-05 20:15 -34.44412 -58.56159 3092 ft 167 kts 146°
2026-05-05 20:15 -34.45288 -58.55397 2989 ft 147 kts 143°
2026-05-05 20:16 -34.46144 -58.54698 2681 ft 151 kts 146°
2026-05-05 20:16 -34.47031 -58.54028 2411 ft 152 kts 147°
2026-05-05 20:16 -34.47940 -58.53363 2193 ft 151 kts 151°
2026-05-05 20:16 -34.48842 -58.52747 2015 ft 148 kts 148°
2026-05-05 20:17 -34.49705 -58.52084 1818 ft 146 kts 141°
2026-05-05 20:17 -34.50448 -58.51257 1610 ft 144 kts 130°
2026-05-05 20:17 -34.51055 -58.50315 1475 ft 140 kts 123°
2026-05-05 20:17 -34.51619 -58.49354 1316 ft 141 kts 121°
2026-05-05 20:18 -34.52149 -58.48349 1108 ft 143 kts 121°
2026-05-05 20:18 -34.52701 -58.47350 939 ft 142 kts 121°
2026-05-05 20:18 -34.53242 -58.46382 797 ft 137 kts 122°
2026-05-05 20:18 -34.53763 -58.45428 638 ft 136 kts 123°
2026-05-05 20:19 -34.54300 -58.44469 388 ft 139 kts 123°
2026-05-05 20:19 -34.54832 -58.43532 228 ft 132 kts 122°
2026-05-05 20:19 -34.55345 -58.42608 54 ft 131 kts 122°
2026-05-05 20:19 -34.55819 -58.41756 27 ft 112 kts 123°
2026-05-05 20:20 -34.56192 -58.41091 24 ft 68 kts 126°
2026-05-05 20:20 -34.56367 -58.40769 23 ft 26 kts 121°
2026-05-05 20:20 -34.56348 -58.40677 24 ft 9 kts 334°
2026-05-05 20:20 -34.56312 -58.40710 24 ft 4 kts 351°
2026-05-05 20:21 -34.56298 -58.40714 23 ft 0 kts 323°
2026-05-05 20:21 -34.56236 -58.40778 23 ft 19 kts 312°
2026-05-05 20:21 -34.56163 -58.40907 25 ft 18 kts 302°
2026-05-05 20:22 -34.56097 -58.41026 23 ft 16 kts 305°
2026-05-05 20:22 -34.56033 -58.41130 23 ft 15 kts 309°
2026-05-05 20:22 -34.55972 -58.41226 24 ft 14 kts 307°
2026-05-05 20:22 -34.55916 -58.41296 23 ft 9 kts 345°
2026-05-05 20:23 -34.55859 -58.41285 25 ft 8 kts
2026-05-05 20:23 -34.55821 -58.41313 23 ft 6 kts 304°
2026-05-05 20:23 -34.55794 -58.41362 23 ft 8 kts 304°
2026-05-05 20:23 -34.55759 -58.41423 25 ft 9 kts 304°
2026-05-05 20:24 -34.55754 -58.41464 23 ft 4 kts 234°
2026-05-05 20:24 -34.55778 -58.41483 23 ft 4 kts 206°
2026-05-05 20:24 -34.55787 -58.41488 23 ft 0 kts 205°